[[{"header":{"parameterUnit":"m.s-1","parameterCategory":1,"la1":30.2991,"la2":30.254,"lo1":-89.0895,"lo2":-89.0444,"dy":0.0017,"dx":0.0017,"nx":28,"ny":28,"refTime":"2024-08-07T09:00:00:Z","depth":0,"parameterNumber":2,"parameterNumberName":"U-component_of_WINDS"},"data":[0,0,0,0,0,0,0,0,0,0,0,0,0,0,0,0,0,0,0,0,0,0,0,0,0,0,0,0,0,0,0,0,0,0,0,0,0,0,0,0,0,0,0,0,0,0,0,0,0,0,0,0,0,0,0,0,0,0,2.2826,2.2827,0,2.2876,2.2877,2.2878,2.2879,2.2878,2.2878,2.2877,2.2931,2.2933,2.2935,0,0,0,0,0,0,0,0,0,0,0,0,0,2.2737,2.2739,2.2826,2.2827,2.2828,2.2876,2.2877,2.2878,2.2879,2.2878,2.2878,2.2877,2.2931,2.2933,2.2935,0,0,0,0,0,0,0,0,0,0,0,0,0,2.2781,2.2739,2.2826,2.2834,2.2835,2.2876,2.2877,2.2878,2.2879,2.2878,2.2877,2.2876,2.293,2.2933,2.2936,2.2973,0,0,2.2945,2.2946,0,0,0,0,0,0,0,0,2.2778,2.2784,2.2832,2.2834,2.2835,2.287,2.2865,2.291,2.2879,2.2863,2.2877,2.2876,2.2912,2.2916,2.2928,2.2976,2.2978,2.2945,2.2947,2.2948,2.2949,0,0,0,0,0,0,0,2.2775,2.2782,2.2846,2.2833,2.2835,2.2837,2.2842,2.2874,2.2892,2.2864,2.2864,2.287,2.2913,2.2925,2.2929,2.2979,2.2945,2.2948,2.295,2.2951,2.3064,2.3065,0,0,0,0,0,0,2.277,2.2779,2.2845,2.2848,2.2804,2.2839,2.2845,2.286,2.2892,2.2895,2.2871,2.287,2.292,2.2926,2.2931,2.298,2.2948,2.2951,2.2953,2.3063,2.3064,2.3065,0,0,0,0,0,0,2.2768,2.2776,2.2843,2.2814,2.2822,2.2842,2.2859,2.2862,2.2874,2.2897,2.29,2.288,2.292,2.2927,2.2963,2.2981,2.2953,2.2955,2.3061,2.3063,2.3065,2.3075,0,0,0,0,0,0,2.2765,2.2775,2.2788,2.2814,2.2824,2.2872,2.286,2.2863,2.2879,2.2878,2.2906,2.291,2.292,2.2959,2.2966,2.2985,2.2958,2.306,2.3062,2.3064,2.3073,2.3077,2.308,0,0,0,0,0,2.2762,2.2789,2.2788,2.2796,2.284,2.2873,2.2879,2.2889,2.288,2.2895,2.291,2.2909,2.2978,2.2962,2.2971,2.2991,2.3059,2.3061,2.3064,2.3072,2.3076,2.308,0,0,0,0,0,0,2.2764,2.2792,2.2792,2.2827,2.2848,2.2873,2.2891,2.2893,2.2917,2.2915,2.2928,2.2934,2.2971,2.2984,2.2967,2.3031,2.3018,2.3022,2.302,2.3025,2.3028,2.3025,2.296,0,0,0,0,0,2.2769,2.2792,2.2816,2.2845,2.2855,2.2872,2.2886,2.2892,2.2915,2.2923,2.2941,2.2964,2.2991,2.3009,2.3034,2.3075,2.3083,2.3093,2.3097,2.3099,2.3104,2.313,2.3135,2.3074,2.3074,2.3074,0,0,2.2779,2.2797,2.2811,2.2846,2.2862,2.2888,2.2879,2.2906,2.2926,2.2928,2.2964,2.2978,2.3004,2.3044,2.3062,2.3056,2.3122,2.3103,2.3105,2.3108,2.3133,2.3139,2.3144,2.3076,2.3076,2.3075,0,0,2.281,2.2825,2.2852,2.2869,2.2895,2.2906,2.2913,2.2939,2.2948,2.2984,2.2987,2.3012,2.3058,2.3078,2.3094,2.3136,2.3138,2.3144,2.3163,2.3188,2.3193,2.3198,2.3215,2.3221,2.3148,2.3148,2.3148,0,2.2819,2.2857,2.2866,2.2894,2.2911,2.2914,2.2943,2.296,2.2993,2.3005,2.2998,2.3057,2.3075,2.3121,2.3132,2.3144,2.3154,2.3141,2.3191,2.3196,2.32,2.3218,2.3224,2.3149,2.3149,2.3149,2.3149,0,2.2868,2.2895,2.2914,2.2946,2.2965,2.2993,2.3009,2.3027,2.3033,2.3045,2.3084,2.3106,2.3138,2.3149,2.3154,2.3197,2.3193,2.3188,2.3176,2.3207,2.3223,2.323,2.315,2.315,2.315,2.3149,0,0,2.2901,2.294,2.2947,2.2963,2.2993,2.3014,2.3044,2.3075,2.3092,2.3116,2.3143,2.3183,2.318,2.3198,2.3206,2.3228,2.3264,2.3221,2.3222,2.323,2.3317,2.3321,2.3329,2.3265,2.3266,2.3267,2.3315,0,2.2937,2.2989,2.3,2.3046,2.3073,2.3078,2.3104,2.3127,2.3141,2.3167,2.3182,2.3211,2.3203,2.3215,2.3237,2.3255,2.3282,2.3251,2.3293,2.3295,2.3288,2.3337,2.3341,2.3385,2.3322,2.3323,2.3323,0,2.2986,2.3011,2.306,2.3089,2.3101,2.3124,2.3156,2.318,2.3207,2.3215,2.3237,2.3243,2.3278,2.3263,2.3312,2.3291,2.3309,2.3321,2.3323,2.3329,2.3312,2.3346,2.3399,2.3407,2.3333,2.3332,2.3332,0,2.3008,2.3054,2.309,2.3104,2.3138,2.3155,2.3171,2.3196,2.3216,2.3243,2.3257,2.3288,2.3306,2.3331,2.3347,2.3334,2.3396,2.3382,2.3407,2.3407,2.342,2.342,2.348,2.3429,2.3429,2.3429,2.3429,0,2.3049,2.3079,2.3101,2.3124,2.3159,2.3172,2.3207,2.3223,2.3247,2.3274,2.328,2.3306,2.3324,2.3353,2.3366,2.3407,2.3414,2.3424,2.3428,2.3425,2.3424,2.3438,2.3436,2.343,2.343,2.343,2.3429,0,2.3079,2.3095,2.3135,2.3165,2.3174,2.3199,2.3225,2.3249,2.3263,2.3298,2.3307,2.3331,2.3366,2.3384,2.3427,2.3436,2.3483,2.3483,2.3474,2.3475,2.35,2.3499,2.3573,2.3584,2.3524,2.3524,2.3525,0,2.3105,2.3128,2.3161,2.318,2.3196,2.3225,2.3245,2.326,2.3281,2.3315,2.3335,2.3371,2.34,2.3456,2.3479,2.3513,2.3516,2.354,2.3521,2.3519,2.352,2.3519,2.3523,2.3543,2.3544,2.3544,2.3545,0,2.3149,2.3156,2.3184,2.3216,2.324,2.3265,2.3291,2.3306,2.3326,2.335,2.3385,2.3408,2.3454,2.349,2.3527,2.3545,2.355,2.355,2.3558,2.3557,2.3551,2.3557,2.3485,2.3549,2.3548,2.3548,2.3548,2.3548,2.3179,2.3202,2.323,2.3262,2.3283,2.3307,2.3331,2.335,2.3379,2.3417,2.3425,2.3464,2.3494,2.3544,2.3563,2.3596,2.3591,2.3602,2.3605,2.3608,2.3611,2.3545,2.3602,2.3602,2.3602,2.3602,2.3602,0,2.3226,2.3245,2.3274,2.331,2.3336,2.3337,2.3366,2.3389,2.3422,2.3449,2.3479,2.3522,2.3558,2.3584,2.3621,2.3643,2.3646,2.3652,2.3652,2.3657,2.3611,2.3602,2.3649,2.3649,2.3649,2.3649,2.3649,2.3649,2.3254,2.3293,2.3304,2.3355,2.3374,2.3412,2.3429,2.3453,2.3475,2.3523,2.3553,2.3569,2.3597,2.3637,2.3671,2.3678,2.3693,2.37,2.3707,2.3664,2.3659,2.3655,2.3646,2.3702,2.3702,2.375,2.3751,2.3751]},{"header":{"parameterUnit":"m.s-1","parameterCategory":1,"la1":30.2991,"la2":30.254,"lo1":-89.0895,"lo2":-89.0444,"dy":0.0017,"dx":0.0017,"nx":28,"ny":28,"refTime":"2024-08-07T09:00:00:Z","depth":0,"parameterNumber":3,"parameterNumberName":"V-component_of_WINDS"},"data":[0,0,0,0,0,0,0,0,0,0,0,0,0,0,0,0,0,0,0,0,0,0,0,0,0,0,0,0,0,0,0,0,0,0,0,0,0,0,0,0,0,0,0,0,0,0,0,0,0,0,0,0,0,0,0,0,0,0,-1.988,-1.9879,0,-1.9823,-1.9822,-1.9822,-1.986,-1.9862,-1.9863,-1.9865,-1.9803,-1.98,-1.9797,0,0,0,0,0,0,0,0,0,0,0,0,0,-2.0019,-2.0016,-1.988,-1.9879,-1.9878,-1.9823,-1.9822,-1.9822,-1.986,-1.9862,-1.9864,-1.9866,-1.9804,-1.98,-1.9796,0,0,0,0,0,0,0,0,0,0,0,0,0,-1.996,-2.0015,-1.988,-1.9891,-1.9891,-1.9823,-1.9822,-1.9821,-1.9859,-1.9862,-1.9864,-1.9867,-1.9805,-1.9801,-1.9796,-1.9713,0,0,-1.9781,-1.9779,0,0,0,0,0,0,0,0,-1.9963,-1.9955,-1.989,-1.989,-1.989,-1.9851,-1.9849,-1.9785,-1.9858,-1.9871,-1.9865,-1.9868,-1.9817,-1.9811,-1.9795,-1.971,-1.9707,-1.978,-1.9777,-1.9775,-1.9774,0,0,0,0,0,0,0,-1.9967,-1.9957,-1.9857,-1.9889,-1.9889,-1.9898,-1.9892,-1.9837,-1.983,-1.987,-1.9873,-1.9866,-1.9817,-1.9799,-1.9793,-1.9706,-1.9781,-1.9776,-1.9773,-1.9771,-1.9553,-1.955,0,0,0,0,0,0,-1.9971,-1.996,-1.9859,-1.9856,-1.9934,-1.9893,-1.9887,-1.9861,-1.9831,-1.9828,-1.9864,-1.9868,-1.9806,-1.9799,-1.9791,-1.9693,-1.9775,-1.9771,-1.9768,-1.9555,-1.9552,-1.9549,0,0,0,0,0,0,-1.9973,-1.9961,-1.9861,-1.9909,-1.9897,-1.9888,-1.9859,-1.9859,-1.9841,-1.9826,-1.9824,-1.9847,-1.9808,-1.9798,-1.9733,-1.9692,-1.9768,-1.9764,-1.9559,-1.9554,-1.955,-1.9496,0,0,0,0,0,0,-1.9977,-1.9962,-1.9931,-1.9908,-1.9894,-1.9804,-1.9856,-1.9856,-1.9832,-1.9837,-1.9809,-1.9807,-1.9809,-1.974,-1.9728,-1.9686,-1.976,-1.9562,-1.9557,-1.9552,-1.9501,-1.949,-1.9481,0,0,0,0,0,-1.9982,-1.9917,-1.9929,-1.9917,-1.9855,-1.9802,-1.9794,-1.9799,-1.9829,-1.9797,-1.9788,-1.9808,-1.9698,-1.9733,-1.972,-1.9676,-1.9565,-1.9558,-1.9552,-1.9506,-1.9492,-1.9481,0,0,0,0,0,0,-1.9933,-1.9914,-1.9927,-1.9853,-1.9829,-1.9808,-1.9769,-1.9784,-1.975,-1.9756,-1.9763,-1.9756,-1.9688,-1.9675,-1.9714,-1.9595,-1.9636,-1.9627,-1.9606,-1.9593,-1.9583,-1.9587,-1.9756,0,0,0,0,0,-1.9914,-1.9874,-1.9858,-1.9794,-1.9781,-1.9777,-1.9754,-1.976,-1.9735,-1.9725,-1.9711,-1.9685,-1.9645,-1.9618,-1.958,-1.95,-1.9495,-1.9463,-1.9453,-1.9445,-1.9436,-1.9394,-1.938,-1.9528,-1.9528,-1.9528,0,0,-1.9874,-1.9858,-1.9831,-1.9784,-1.9766,-1.9723,-1.9768,-1.972,-1.9689,-1.9717,-1.9655,-1.9644,-1.9615,-1.9543,-1.951,-1.953,-1.9395,-1.9437,-1.943,-1.9426,-1.9386,-1.9372,-1.936,-1.9523,-1.9524,-1.9525,0,0,-1.9778,-1.9762,-1.9707,-1.9689,-1.9662,-1.966,-1.9647,-1.9625,-1.9619,-1.9557,-1.9578,-1.954,-1.947,-1.945,-1.943,-1.9328,-1.9346,-1.9316,-1.9262,-1.9221,-1.9209,-1.9199,-1.9163,-1.915,-1.9308,-1.9307,-1.9307,0,-1.9731,-1.9668,-1.9677,-1.9628,-1.9607,-1.9632,-1.9577,-1.9558,-1.952,-1.9504,-1.9528,-1.9442,-1.9425,-1.9348,-1.9324,-1.9307,-1.9292,-1.9319,-1.921,-1.92,-1.9191,-1.9157,-1.9143,-1.9304,-1.9304,-1.9305,-1.9305,0,-1.9611,-1.9568,-1.9526,-1.9491,-1.9465,-1.9413,-1.9413,-1.9385,-1.9394,-1.9389,-1.9326,-1.9307,-1.9266,-1.9248,-1.9255,-1.9173,-1.9186,-1.921,-1.9252,-1.9173,-1.9141,-1.9128,-1.9299,-1.93,-1.9301,-1.9302,0,0,-1.9482,-1.9454,-1.9438,-1.9423,-1.9396,-1.9362,-1.9312,-1.9273,-1.925,-1.9223,-1.9181,-1.9122,-1.9144,-1.9122,-1.9127,-1.9091,-1.9013,-1.9119,-1.9119,-1.9101,-1.8922,-1.8904,-1.8889,-1.9025,-1.9022,-1.902,-1.8924,0,-1.9386,-1.9299,-1.9306,-1.9224,-1.9184,-1.9208,-1.9164,-1.9143,-1.9137,-1.9102,-1.9096,-1.9054,-1.9086,-1.9073,-1.9039,-1.903,-1.8977,-1.9037,-1.8985,-1.8983,-1.8992,-1.8872,-1.8854,-1.8764,-1.8912,-1.891,-1.8908,0,-1.9261,-1.9232,-1.9146,-1.9127,-1.9111,-1.9071,-1.9037,-1.9003,-1.898,-1.8978,-1.8954,-1.8966,-1.8915,-1.8958,-1.8888,-1.8929,-1.8908,-1.89,-1.8897,-1.8892,-1.8941,-1.8865,-1.8735,-1.8722,-1.8889,-1.889,-1.8892,0,-1.9177,-1.9116,-1.9057,-1.9043,-1.9019,-1.8991,-1.8979,-1.8958,-1.8935,-1.8905,-1.889,-1.8854,-1.8834,-1.8806,-1.8808,-1.8839,-1.8737,-1.878,-1.8734,-1.8734,-1.8711,-1.8713,-1.8577,-1.8697,-1.8697,-1.8698,-1.8698,0,-1.9068,-1.9015,-1.9019,-1.8983,-1.8924,-1.8932,-1.8873,-1.8865,-1.8846,-1.8809,-1.8827,-1.8791,-1.8796,-1.8759,-1.876,-1.8703,-1.8693,-1.869,-1.8691,-1.8689,-1.8689,-1.8675,-1.8682,-1.8694,-1.8695,-1.8696,-1.8696,0,-1.8964,-1.8964,-1.8902,-1.8885,-1.8879,-1.8837,-1.8822,-1.8787,-1.8784,-1.8736,-1.8725,-1.872,-1.8678,-1.8678,-1.8629,-1.863,-1.856,-1.8567,-1.8568,-1.857,-1.8524,-1.8529,-1.8375,-1.8355,-1.8488,-1.8487,-1.8486,0,-1.8895,-1.8855,-1.8834,-1.8811,-1.8798,-1.876,-1.8737,-1.8744,-1.872,-1.8691,-1.866,-1.862,-1.8589,-1.8522,-1.8513,-1.8476,-1.8484,-1.8432,-1.8478,-1.8477,-1.8484,-1.8486,-1.8483,-1.8423,-1.8422,-1.842,-1.8419,0,-1.8772,-1.8775,-1.8742,-1.871,-1.8683,-1.8657,-1.8633,-1.8613,-1.8617,-1.8588,-1.8547,-1.8523,-1.8475,-1.8436,-1.8401,-1.8388,-1.8404,-1.8405,-1.8393,-1.839,-1.8392,-1.8391,-1.8544,-1.8409,-1.841,-1.8411,-1.8411,-1.8412,-1.8684,-1.865,-1.8631,-1.8594,-1.8577,-1.8555,-1.8522,-1.8516,-1.8482,-1.8444,-1.845,-1.8404,-1.8383,-1.8338,-1.8322,-1.8286,-1.8304,-1.8286,-1.8281,-1.8277,-1.8272,-1.8398,-1.828,-1.828,-1.828,-1.8281,-1.8281,0,-1.8563,-1.8552,-1.8518,-1.8486,-1.8457,-1.8476,-1.8451,-1.8425,-1.8385,-1.8364,-1.8334,-1.8287,-1.8249,-1.8238,-1.8202,-1.8175,-1.8182,-1.8165,-1.8167,-1.8165,-1.8258,-1.8273,-1.8161,-1.8161,-1.8161,-1.8161,-1.8161,-1.8161,-1.8497,-1.8441,-1.8441,-1.8377,-1.8367,-1.8323,-1.8307,-1.8287,-1.8271,-1.8218,-1.8187,-1.8181,-1.8164,-1.8127,-1.8093,-1.8091,-1.8077,-1.8058,-1.8058,-1.8146,-1.8158,-1.8169,-1.8183,-1.8054,-1.8054,-1.7968,-1.7968,-1.7967]}]]